OpenBCM V1.13 (Linux)

Packet Radio Mailbox

DB0FHN

[JN59NK Nuernberg]

 Login: GUEST





  
I0OJJ  > KEPS     27.01.25 06:33l 328 Lines 15576 Bytes #999 (0) @ AMSAT
BID : ORB25027.1
Read: DJ6UX GUEST
Subj: 2Line Orbital Elements 25027.AMSAT
Path: DB0FHN<DB0RKB<DK0WUE<DK0WUE<VK5RSV<PI8ZTM<I0OJJ
Sent: 250127/0345z @:I0OJJ.ITA.EU [Rome] obcm1.08-6-g5b69
From: I0OJJ @ I0OJJ.ITA.EU (Gustavo)
To:   KEPS @ AMSAT
X-Info: This message was generated automatically


QST de W1STR

AMSAT Orbital Elements for Amateur Satellites in TLE Format
From Orbital Analysis Office
New England Sci-Tech STEM Education Center
Natick, MA January 27, 2025
To all radio amateurs


These element sets describe the orbits of various satellites 
in use by the amateur radio community. For details see:
www.amsat.org/keplerian-elements-formats/

A daily update of element sets is available at:
www.amsat.org/tle/daily-bulletin.txt
or without bulletin text:
www.amsat.org/tle/dailytle.txt


AO-07
1 07530U 74089B   25026.59566118 -.00000017  00000-0  18625-3 0  9993
2 07530 101.9920  29.4392 0012272  18.9231  92.8744 12.53685488297031
UO-11
1 14781U 84021B   25026.47187310  .00003381  00000-0  36880-3 0  9995
2 14781  97.7359 355.7130 0009444  65.1765 295.0433 14.88561951181686
AO-27
1 22825U 93061C   25026.15705913  .00000312  00000-0  13664-3 0  9993
2 22825  98.7582  86.9228 0009067 141.5932 218.5897 14.30715594634497
FO-29
1 24278U 96046B   25026.63227230  .00000058  00000-0  96867-4 0  9991
2 24278  98.5884 298.0645 0349588 329.7079  28.4257 13.53233887404655
NOAA-15
1 25338U 98030A   25026.74091845  .00000417  00000-0  18962-3 0  9995
2 25338  98.5497  55.0049 0010811  36.2181 323.9730 14.26867020389317
GO-32
1 25397U 98043D   25026.51406771  .00000299  00000-0  14990-3 0  9992
2 25397  98.9539   2.9569 0000698 181.8004 178.3171 14.24241795379205
ISS
1 25544U 98067A   25026.23381182  .00028165  00000-0  48961-3 0  9996
2 25544  51.6394 290.1657 0002353 148.0201 356.6586 15.50579325493141
NO-44
1 26931U 01043C   25026.58630100  .00000530  00000-0  22976-3 0  9994
2 26931  67.0511 114.2525 0006183 262.3173  97.7227 14.31597557217927
SO-50
1 27607U 02058C   25026.06757344  .00002808  00000-0  37645-3 0  9994
2 27607  64.5539 255.5120 0039954   8.9581 351.2227 14.80837356189305
CO-55
1 27844U 03031E   25026.81714146  .00000876  00000-0  40212-3 0  9992
2 27844  98.6783  36.8161 0009106 210.4041 149.6611 14.23787339119636
CO-57
1 27848U 03031J   25026.56366315  .00000734  00000-0  34419-3 0  9994
2 27848  98.6810  36.6699 0008733 229.1786 130.8636 14.23152230119302
RS-22
1 27939U 03042A   25026.76298910  .00002731  00000-0  44643-3 0  9993
2 27939  98.3106 193.1426 0012634  74.9746 343.2044 14.71654898141142
NOAA-18
1 28654U 05018A   25026.77174391  .00000413  00000-0  24260-3 0  9998
2 28654  98.8548 107.7083 0014834 146.7550 213.4558 14.13498046 14848
CO-58
1 28895U 05043F   25026.06935399  .00003893  00000-0  65629-3 0  9997
2 28895  98.2265 169.0009 0015160  16.8782 343.2925 14.70008867 27172
CO-65
1 32785U 08021C   25026.48158012  .00009341  00000-0  72005-3 0  9994
2 32785  97.7656 357.0351 0008603 317.6877  42.3682 15.01810379908936
AAUSAT2
1 32788U 08021F   25026.51204431  .00087217  00000-0  18874-2 0  9999
2 32788  97.6049  17.2798 0007494  98.1606 262.0492 15.44119704912433
CO-66
1 32791U 08021J   25026.46755781  .00019326  00000-0  10918-2 0  9993
2 32791  97.7150   4.1504 0002015 267.4961  92.6039 15.13151617910178
RS-30
1 32953U 08025A   25026.80630104  .00000023  00000-0  97671-4 0  9993
2 32953  82.5058 310.3966 0019551 340.5346  19.4985 12.43157864756911
NOAA-19
1 33591U 09005A   25026.75647133  .00000374  00000-0  22370-3 0  9997
2 33591  99.0175  90.6086 0014019  25.6679 334.5186 14.13269728823201
SRMSAT
1 37841U 11058D   25026.28747632  .00000664  00000-0  21772-3 0  9990
2 37841  19.9705 247.1666 0011753  28.1561 127.4724 14.11346073686331
ZACUBE-1
1 39417U 13066B   25026.44219704  .00008040  00000-0  73899-3 0  9997
2 39417  97.7636 344.5311 0047525 137.7926 222.6969 14.94190695604861
Delfi-N3xt
1 39428U 13066N   25026.30694354  .00011861  00000-0  12959-2 0  9996
2 39428  97.8382 305.7578 0092034  81.8078 279.3563 14.84924515599124
GOMX-1
1 39430U 13066Q   25026.68192979  .00004926  00000-0  78426-3 0  9992
2 39430  97.7016 253.4882 0133319 260.7225  97.8883 14.66619794595776
LO-74
1 39440U 13066AA  25026.41179736  .00007998  00000-0  84913-3 0  9990
2 39440  97.8361 332.2121 0062725 262.1763  97.2329 14.87849161601478
AO-73
1 39444U 13066AE  25026.79713692  .00010661  00000-0  87300-3 0  9994
2 39444  97.7482 348.8291 0043941 113.0115 247.5751 14.98716476604117
DTUSAT-2
1 40030U 14033W   25026.34448798  .00011611  00000-0  82421-3 0  9990
2 40030  98.0390 352.1328 0011099 143.2461 216.9527 15.04856003576184
EO-80
1 40032U 14033Y   25026.43877256  .00013070  00000-0  92504-3 0  9991
2 40032  98.0284 352.0650 0011060  93.1247 267.1244 15.04935862576172
XW-2C
1 40906U 15049H   25026.78709623  .00369741  53256-4  11977-2 0  9997
2 40906  97.4428  60.4791 0003849 167.4298 192.7072 15.90775389519291
LILACSAT-2
1 40908U 15049K   25026.79834774  .00016255  00000-0  49224-3 0  9997
2 40908  97.5169  44.2725 0008362 282.3740  77.6566 15.34217222517682
IO-86
1 40931U 15052B   25025.93518289  .00001895  00000-0  16605-3 0  9993
2 40931   5.9982 200.2908 0012808 359.8798   0.1327 14.78536532504580
Horyu-4
1 41340U 16012D   25026.08126365  .00028705  00000-0  10019-2 0  9993
2 41340  30.9996 310.9269 0005746 102.5492 257.5795 15.28394836492133
Lapan A3
1 41603U 16040E   25026.80989981  .00005920  00000-0  21708-3 0  9999
2 41603  97.1387  36.7925 0012403  34.9728 325.2325 15.28267104477349
CAS-2T
1 41847U 16066G   25026.80489795  .00003436  00000-0  50152-3 0  9990
2 41847  98.4362 102.4052 0347964 222.8630 134.4955 14.42789131431726
CAS-4B
1 42759U 17034B   25026.46831837  .00047543  00000-0  96478-3 0  9997
2 42759  43.0133  30.2548 0014389  74.9111 285.3339 15.45505377421735
CAS-4A
1 42761U 17034D   25026.43895509  .00048085  00000-0  96168-3 0  9991
2 42761  43.0170  28.4396 0015494  82.4255 277.8363 15.45907007421739
TechnoSat
1 42829U 17042E   25026.44965384  .00005828  00000-0  47108-3 0  9993
2 42829  97.3917 201.6731 0013371  35.2910 324.9197 15.00091035410608
AO-91
1 43017U 17073E   25026.58493849  .00015963  00000-0  87380-3 0  9991
2 43017  97.5485 260.8618 0183316 262.7694  95.2660 15.01012607389083
S-Net D
1 43186U 18014G   25026.24319504  .00008793  00000-0  55318-3 0  9991
2 43186  97.5754 290.6422 0008833 337.6869  22.3974 15.09415220382098
S-Net B
1 43187U 18014H   25026.24705924  .00008990  00000-0  56556-3 0  9991
2 43187  97.5764 290.6106 0009389 332.1757  27.8969 15.09401426382099
S-Net A
1 43188U 18014J   25026.24399595  .00008850  00000-0  55660-3 0  9995
2 43188  97.5769 290.7413 0009299 332.8097  27.2644 15.09419491382096
S-Net C
1 43189U 18014K   25026.24917136  .00008989  00000-0  56539-3 0  9992
2 43189  97.5786 290.7371 0010649 323.3471  36.7028 15.09399484380640
Ten-Koh
1 43677U 18084G   25026.51269020  .00005312  00000-0  44099-3 0  9998
2 43677  98.0806 193.5002 0012914 353.6733   6.4323 14.99165700340149
PO-101
1 43678U 18084H   25026.77765569  .00002608  00000-0  23090-3 0  9999
2 43678  98.0899 197.9753 0009286  17.1659 342.9874 14.97174061340350
QO-100
1 43700U 18090A   25026.59771603  .00000161  00000-0  00000-0 0  9993
2 43700   0.0269  77.4873 0000889 244.7726  44.8520  1.00268606 22596
MinXSS-2
1 43758U 18099A   25026.14282550  .00021845  00000-0  10354-2 0  9991
2 43758  97.5235  92.2187 0012492 268.2847  91.6956 15.19251266336516
AO-95
1 43770U 18099N   25026.73826818  .00013357  00000-0  75458-3 0  9997
2 43770  97.5145  86.5225 0010847 321.7444  38.3017 15.13185136336285
RANGE-A
1 43773U 18099R   25026.37480957  .00008039  00000-0  54173-3 0  9992
2 43773  97.4707  78.7054 0010614 295.6369  64.3762 15.06887191335996
MOVE-II
1 43780U 18099Y   25026.16934816  .00064054  00000-0  16475-2 0  9996
2 43780  97.4886  95.9265 0003811 275.1656  84.9155 15.39026397336927
SNUSat 2
1 43782U 18099AA  25026.62151627  .00011254  00000-0  67228-3 0  9997
2 43782  97.4836  84.1843 0011550 255.6206 104.3743 15.11203579336243
SnugLite
1 43784U 18099AC  25026.72959492  .00013762  00000-0  77207-3 0  9990
2 43784  97.4642  83.6433 0002471 258.2351 101.8603 15.13471537336364
ITASat 1
1 43786U 18099AE  25026.56486920  .00010970  00000-0  67707-3 0  9997
2 43786  97.4799  83.9877 0014367 312.0225  47.9781 15.09993679336212
EAGLET 1
1 43790U 18099AJ  25026.72711608  .00006540  00000-0  43969-3 0  9996
2 43790  97.4983  84.4608 0011264 290.8512  69.1509 15.07041848335892
ESEO
1 43792U 18099AL  25026.58070232  .00002748  00000-0  21577-3 0  9990
2 43792  97.4685  79.2921 0008391 244.2145 115.8214 15.01681928335700
CSIM
1 43793U 18099AM  25026.15514529  .00072466  00000-0  18701-2 0  9994
2 43793  97.5054  97.8442 0007609 248.2097 111.8338 15.38864732336763
JO-97
1 43803U 18099AX  25026.62475021  .00016685  00000-0  87267-3 0  9996
2 43803  97.4896  87.2019 0007009 250.2493 109.7984 15.15907928336446
Suomi 100
1 43804U 18099AY  25026.12381856  .00015223  00000-0  83567-3 0  9990
2 43804  97.4959  86.3131 0012352 254.2224 105.7645 15.14165084336320
ISAT
1 43879U 18111D   25026.28941537  .00026333  00000-0  11494-2 0  9995
2 43879  97.6055 298.4157 0008906 319.8382  40.2194 15.22081325333219
UWE-4
1 43880U 18111E   25026.24570285  .00021779  00000-0  10223-2 0  9999
2 43880  97.5989 297.6337 0012693 328.0448  32.0015 15.19587610333181
Sparrow
1 43881U 18111F   25026.29715976  .00027366  00000-0  11653-2 0  9999
2 43881  97.6177 300.8476 0008349   5.5913 354.5415 15.22919604333294
Prox-1
1 44339U 19036A   25026.65942873  .00015110  00000-0  21403-2 0  9991
2 44339  23.9959 218.6267 0008211 352.1077   7.9289 14.75354508298276
SONATE
1 44400U 19038Q   25026.57167286  .00064715  00000-0  92292-3 0  9990
2 44400  97.7107  39.8749 0011648  35.9066 324.2968 15.56012633308539
